Weather History for Tacoma, WA

Change the Weather History Date:

Thursday, June 19, 2014

  Actual Average Record
Temperature  
Mean Temperature 64 °F -  
Max Temperature 78 °F 68 °F 89 °F (1982)
Min Temperature 49 °F 48 °F 41 °F (2007)
Degree Days  
Heating Degree Days 2    
Growing Degree Days 14 (Base 50)    
Moisture  
Dew Point 52 °F    
Average Humidity 72    
Maximum Humidity 98    
Minimum Humidity 36    
Precipitation  
Precipitation 0.00 in - - ()
Sea Level Pressure  
Sea Level Pressure 30.02 in    
Wind  
Wind Speed 6 mph (SW)    
Max Wind Speed 17 mph    
Max Gust Speed 21 mph    
Visibility 10 miles    
Events Rain    
Averages and records for this station are not official NWS values.
T = Trace of Precipitation, MM = Missing Value Source: NWS Daily Summary

Daily Weather History Graph

Daily Weather History Graph

Search for Another Location

Airport:

Trip Planner

Search our weather history database for the weather conditions in past years. The results will help you decide how hot, cold, wet, or windy it might be!

Date:

Astronomy

Jun. 19, 2014 Rise Set
Actual Time 5:13 AM PDT 9:08 PM PDT
Civil Twilight 4:33 AM PDT 9:48 PM PDT
Nautical Twilight 3:38 AM PDT 10:43 PM PDT
Astronomical Twilight 2:14 AM PDT 12:08 AM PDT
Moon 12:49 AM PDT (6/19) 1:19 PM PDT (6/19)
Length of Visible Light 17h 15m
Length of Day
15h 54m
Waning Gibbous, 50% of the Moon is Illuminated
Jun 19
Waning Gibbous
Jun 27
New
Jul 5
First Quarter
Jul 12
Full
Jul 18
Last Quarter

Hourly Weather History & Observations

Time (PDT) Temp. Dew Point Humidity Pressure Visibility Wind Dir Wind Speed Gust Speed Precip Events Conditions
12:58 AM 51.1 °F 48.2 °F 90% 30.04 in 10.0 mi SSE 3.5 mph - N/A   Mostly Cloudy
1:58 AM 52.5 °F 49.5 °F 89% 30.04 in 10.0 mi Calm Calm - N/A   Overcast
3:58 AM 49.3 °F 48.7 °F 98% 30.04 in 10.0 mi South 5.8 mph - N/A   Overcast
4:58 AM 51.3 °F 49.6 °F 94% 30.03 in 10.0 mi South 4.6 mph - N/A   Overcast
5:58 AM 52.2 °F 50.0 °F 92% 30.04 in 10.0 mi Calm Calm - N/A   Overcast
6:58 AM 53.1 °F 50.9 °F 92% 30.04 in 10.0 mi SSE 2.3 mph - N/A   Partly Cloudy
7:58 AM 57.4 °F 51.8 °F 82% 30.05 in 10.0 mi Variable 1.2 mph - N/A   Clear
8:58 AM 60.6 °F 51.4 °F 72% 30.04 in 10.0 mi SSW 4.6 mph - N/A   Clear
9:58 AM 63.7 °F 50.0 °F 61% 30.03 in 10.0 mi South 4.6 mph - N/A   Clear
10:58 AM 66.7 °F 51.3 °F 57% 30.02 in 10.0 mi Calm Calm - N/A   Clear
11:58 AM 70.7 °F 49.5 °F 47% 30.01 in 10.0 mi Variable 2.3 mph - N/A   Clear
12:58 PM 72.0 °F 50.0 °F 46% 30.00 in 10.0 mi Variable 4.6 mph - N/A   Partly Cloudy
1:58 PM 74.3 °F 50.4 °F 43% 29.99 in 10.0 mi SW 4.6 mph - N/A   Clear
2:58 PM 75.4 °F 51.4 °F 43% 29.97 in 10.0 mi WNW 8.1 mph - N/A   Clear
3:58 PM 76.8 °F 51.3 °F 41% 29.97 in 10.0 mi West 12.7 mph 17.3 mph N/A   Partly Cloudy
4:19 PM 78.8 °F 50.0 °F 36% 29.95 in 10.0 mi West 13.8 mph 20.7 mph N/A   Partly Cloudy
4:58 PM 75.9 °F 54.1 °F 47% 29.97 in 10.0 mi West 17.3 mph - N/A   Clear
5:58 PM 71.1 °F 55.2 °F 57% 29.98 in 10.0 mi West 11.5 mph - N/A   Overcast
6:58 PM 68.4 °F 54.3 °F 61% 30.00 in 10.0 mi West 13.8 mph - N/A   Overcast
7:58 PM 64.9 °F 54.1 °F 68% 30.02 in 10.0 mi West 13.8 mph - N/A   Overcast
8:58 PM 63.3 °F 54.5 °F 73% 30.03 in 10.0 mi West 8.1 mph - N/A   Overcast
9:58 PM 62.8 °F 52.3 °F 69% 30.04 in 10.0 mi SW 10.4 mph 20.7 mph N/A   Mostly Cloudy
10:30 PM 60.8 °F 53.6 °F 77% 30.04 in 10.0 mi South 6.9 mph - N/A Rain Light Rain
10:40 PM 60.8 °F 53.6 °F 77% 30.04 in 10.0 mi SSW 6.9 mph - N/A   Overcast
10:58 PM 61.3 °F 54.5 °F 78% 30.05 in 10.0 mi South 6.9 mph - 0.00 in   Overcast
11:18 PM 60.8 °F 53.6 °F 77% 30.04 in 10.0 mi SSW 6.9 mph - N/A   Overcast
11:31 PM 60.8 °F 55.4 °F 82% 30.04 in 10.0 mi SW 6.9 mph - N/A Rain Light Rain
11:41 PM 60.8 °F 55.4 °F 82% 30.05 in 10.0 mi WSW 13.8 mph - N/A   Light Drizzle
11:46 PM 59.0 °F 57.2 °F 94% 30.05 in 10.0 mi West 15.0 mph - N/A Rain Rain
11:51 PM 57.2 °F 55.4 °F 94% 30.05 in 10.0 mi WSW 11.5 mph - N/A Rain Light Rain
11:56 PM 57.2 °F 55.4 °F 94% 30.05 in 10.0 mi WSW 15.0 mph - N/A Rain Light Rain
11:58 PM 57.4 °F 56.1 °F 96% 30.06 in 10.0 mi WSW 15.0 mph - 0.00 in Rain Light Rain